Weather History for KAJZ - December, 2013

Change the Weather History Date:

Tuesday, December 3, 2013

  Actual Average (KMTJ) Record (KMTJ)
Temperature  
Mean Temperature 40 °F 30 °F  
Max Temperature 50 °F 41 °F 55 °F (2012)
Min Temperature 31 °F 19 °F -2 °F (2006)
Degree Days  
Heating Degree Days 24 35  
Month to date heating degree days 104  
Since 1 July heating degree days 1525  
Cooling Degree Days 0 0  
Month to date cooling degree days 0  
Year to date cooling degree days 643  
Moisture  
Dew Point 31 °F    
Average Humidity 75    
Maximum Humidity 91    
Minimum Humidity 40    
Precipitation  
Precipitation 0.00 in 0.02 in 0.10 in (1999)
Month to date precipitation 0.07  
Year to date precipitation 10.72  
Sea Level Pressure  
Sea Level Pressure 29.60 in    
Wind  
Wind Speed 4 mph (ENE)    
Max Wind Speed 21 mph    
Max Gust Speed 28 mph    
Visibility 10 miles    
Events Rain    
T = Trace of Precipitation, MM = Missing Value Source: NWS Daily Summary

Daily Weather History Graph

Daily Weather History Graph

Search for Another Location

Airport or City:

Trip Planner

Search our weather history database for the weather conditions in past years. The results will help you decide how hot, cold, wet, or windy it might be!

Date:

Astronomy

Dec. 03, 2013 Rise Set
Actual Time 7:13 AM MST 4:50 PM MST
Civil Twilight 6:44 AM MST 5:20 PM MST
Nautical Twilight 6:11 AM MST 5:53 PM MST
Astronomical Twilight 5:39 AM MST 6:25 PM MST
Moon 7:46 AM MST (12/3) 5:57 PM MST (12/3)
Length of Visible Light 10h 35m
Length of Day
9h 36m
New Moon, 1% of the Moon is Illuminated
Dec 3
New Moon
Dec 9
First Quarter
Dec 17
Full
Dec 25
Last Quarter
Jan 1
New

Hourly Weather History & Observations

Time (MST) Temp. Windchill Dew Point Humidity Pressure Visibility Wind Dir Wind Speed Gust Speed Precip Events Conditions
12:15 AM 33.4 °F 30.4 °F 29.7 °F 86% 29.86 in 10.0 mi NE 3.5 mph - N/A   Overcast
12:35 AM 33.3 °F 28.9 °F 29.7 °F 87% 29.85 in 10.0 mi ENE 4.6 mph - N/A   Overcast
12:55 AM 32.9 °F - 29.7 °F 88% 29.84 in 10.0 mi Calm Calm - N/A   Overcast
1:15 AM 33.1 °F 28.7 °F 29.7 °F 87% 29.83 in 10.0 mi East 4.6 mph - N/A   Overcast
1:35 AM 32.7 °F 28.3 °F 29.5 °F 88% 29.83 in 10.0 mi East 4.6 mph - N/A   Overcast
1:55 AM 32.5 °F 28.1 °F 29.5 °F 88% 29.82 in 10.0 mi East 4.6 mph - N/A   Overcast
2:15 AM 32.9 °F 29.8 °F 29.8 °F 88% 29.81 in 10.0 mi ENE 3.5 mph - N/A   Overcast
2:35 AM 32.9 °F 29.8 °F 29.7 °F 88% 29.80 in 10.0 mi NE 3.5 mph - N/A   Overcast
2:55 AM 32.9 °F 28.5 °F 29.7 °F 88% 29.79 in 10.0 mi NE 4.6 mph - N/A   Overcast
3:15 AM 32.9 °F 25.3 °F 29.8 °F 88% 29.76 in 10.0 mi NE 9.2 mph - N/A   Overcast
3:35 AM 32.4 °F 26.9 °F 29.3 °F 88% 29.75 in 10.0 mi ENE 5.8 mph - N/A   Overcast
3:55 AM 32.0 °F 27.5 °F 29.3 °F 90% 29.75 in 10.0 mi NE 4.6 mph - N/A   Overcast
4:15 AM 32.0 °F 25.6 °F 29.3 °F 90% 29.75 in 10.0 mi NE 6.9 mph - N/A   Overcast
4:35 AM 32.0 °F 28.7 °F 28.9 °F 88% 29.73 in 10.0 mi East 3.5 mph - N/A   Overcast
4:55 AM 32.0 °F - 28.9 °F 88% 29.72 in 10.0 mi Calm Calm - N/A   Overcast
5:15 AM 31.1 °F - 28.4 °F 90% 29.72 in 10.0 mi Calm Calm - N/A   Overcast
5:35 AM 31.5 °F 28.1 °F 28.9 °F 90% 29.71 in 10.0 mi East 3.5 mph - N/A   Overcast
5:55 AM 31.1 °F 27.7 °F 28.4 °F 90% 29.70 in 10.0 mi ENE 3.5 mph - N/A   Overcast
6:15 AM 31.1 °F 27.7 °F 28.4 °F 90% 29.69 in 10.0 mi ENE 3.5 mph - N/A   Overcast
6:35 AM 31.1 °F 25.4 °F 28.8 °F 91% 29.69 in 7.0 mi NE 5.8 mph - N/A   Overcast
6:55 AM 31.1 °F 26.4 °F 28.6 °F 90% 29.69 in 10.0 mi ENE 4.6 mph - N/A   Mostly Cloudy
7:15 AM 31.1 °F 27.7 °F 28.4 °F 90% 29.68 in 10.0 mi ENE 3.5 mph - N/A   Scattered Clouds
7:35 AM 31.1 °F 26.4 °F 28.4 °F 90% 29.68 in 7.0 mi ENE 4.6 mph - N/A   Clear
7:55 AM 31.1 °F - 28.4 °F 90% 29.67 in 10.0 mi Calm Calm - N/A   Clear
8:15 AM 31.6 °F 25.1 °F 28.2 °F 87% 29.66 in 10.0 mi ENE 6.9 mph - N/A   Clear
8:35 AM 32.0 °F 27.5 °F 28.4 °F 87% 29.65 in 10.0 mi East 4.6 mph - N/A   Clear
8:55 AM 32.4 °F - 28.8 °F 87% 29.66 in 10.0 mi Calm Calm - N/A   Clear
9:15 AM 32.4 °F - 28.6 °F 86% 29.65 in 10.0 mi Calm Calm - N/A   Scattered Clouds
9:35 AM 32.9 °F - 29.3 °F 87% 29.65 in 10.0 mi Calm Calm - N/A   Mostly Cloudy
9:55 AM 32.9 °F - 29.3 °F 87% 29.66 in 10.0 mi Calm Calm - N/A   Scattered Clouds
10:15 AM 34.0 °F 29.8 °F 30.0 °F 85% 29.66 in 10.0 mi ENE 4.6 mph - N/A   Mostly Cloudy
10:35 AM 34.5 °F - 30.0 °F 84% 29.65 in 10.0 mi Calm Calm - N/A   Overcast
10:55 AM 35.1 °F 31.0 °F 30.7 °F 84% 29.64 in 7.0 mi East 4.6 mph - N/A   Mostly Cloudy
11:15 AM 35.2 °F 32.4 °F 30.9 °F 84% 29.62 in 10.0 mi ESE 3.5 mph - N/A   Mostly Cloudy
11:35 AM 35.6 °F - 31.1 °F 84% 29.60 in 10.0 mi Calm Calm - N/A   Overcast
11:55 AM 36.5 °F - 31.6 °F 83% 29.58 in 10.0 mi Calm Calm - N/A   Overcast
12:15 PM 38.5 °F - 32.0 °F 78% 29.57 in 10.0 mi Calm Calm - N/A   Overcast
12:35 PM 40.1 °F 34.7 °F 32.9 °F 75% 29.54 in 10.0 mi ENE 8.1 mph - N/A   Mostly Cloudy
12:55 PM 42.1 °F 38.4 °F 32.9 °F 70% 29.53 in 10.0 mi ENE 5.8 mph - N/A   Overcast
1:15 PM 44.2 °F 42.7 °F 33.3 °F 65% 29.52 in 10.0 mi ENE 3.5 mph - N/A   Overcast
1:35 PM 46.6 °F - 31.1 °F 55% 29.51 in 10.0 mi ENE 4.6 mph - N/A   Overcast
1:55 PM 46.6 °F - 31.5 °F 56% 29.51 in 10.0 mi NNE 3.5 mph - N/A   Overcast
2:15 PM 48.2 °F - 30.2 °F 50% 29.50 in 10.0 mi Calm Calm - N/A   Scattered Clouds
2:35 PM 48.7 °F - 31.5 °F 51% 29.49 in 10.0 mi SE 6.9 mph - N/A   Mostly Cloudy
2:55 PM 48.2 °F - 30.2 °F 50% 29.49 in 10.0 mi North 5.8 mph - N/A   Overcast
3:15 PM 48.2 °F - 29.8 °F 49% 29.50 in 10.0 mi Calm Calm - N/A   Overcast
3:35 PM 47.5 °F - 30.9 °F 53% 29.49 in 10.0 mi Calm Calm - N/A   Overcast
3:55 PM 47.8 °F - 29.8 °F 50% 29.48 in 10.0 mi NE 5.8 mph - N/A   Mostly Cloudy
4:15 PM 47.7 °F - 29.8 °F 50% 29.47 in 10.0 mi Calm Calm - N/A   Overcast
4:35 PM 46.6 °F - 30.9 °F 54% 29.49 in 10.0 mi ESE 5.8 mph - N/A   Overcast
4:55 PM 48.2 °F - 25.9 °F 42% 29.50 in 10.0 mi SW 13.8 mph 18.4 mph N/A   Overcast
5:15 PM 49.8 °F - 26.4 °F 40% 29.50 in 10.0 mi South 10.4 mph - N/A   Overcast
5:35 PM 50.0 °F - 27.5 °F 42% 29.50 in 10.0 mi SSW 12.7 mph 20.7 mph N/A   Overcast
5:55 PM 50.0 °F - 26.8 °F 41% 29.50 in 10.0 mi SW 20.7 mph 26.5 mph N/A   Overcast
6:15 PM 49.5 °F - 28.2 °F 44% 29.50 in 10.0 mi SW 18.4 mph 27.6 mph N/A   Overcast
6:35 PM 49.3 °F - 29.1 °F 46% 29.49 in 10.0 mi SW 17.3 mph 23.0 mph N/A   Overcast
6:55 PM 48.2 °F - 30.4 °F 50% 29.49 in 10.0 mi WSW 5.8 mph - N/A   Overcast
7:15 PM 47.5 °F - 31.6 °F 54% 29.49 in 10.0 mi WSW 8.1 mph - N/A   Overcast
7:35 PM 47.3 °F - 32.0 °F 55% 29.48 in 10.0 mi West 8.1 mph - N/A   Overcast
7:55 PM 45.9 °F 42.3 °F 32.7 °F 60% 29.47 in 10.0 mi WSW 6.9 mph - N/A   Overcast
8:15 PM 46.0 °F 40.2 °F 34.5 °F 64% 29.47 in 10.0 mi SW 12.7 mph 20.7 mph N/A Rain Light Rain
8:35 PM 44.6 °F 39.2 °F 36.3 °F 73% 29.47 in 7.0 mi West 10.4 mph - N/A Rain Light Rain
8:55 PM 43.2 °F 39.7 °F 37.2 °F 80% 29.46 in 7.0 mi West 5.8 mph - N/A Rain Light Rain
9:15 PM 42.8 °F 40.1 °F 37.2 °F 81% 29.46 in 10.0 mi WNW 4.6 mph - N/A Rain Light Rain
9:35 PM 42.1 °F 39.2 °F 37.6 °F 84% 29.46 in 10.0 mi North 4.6 mph - N/A   Overcast
9:55 PM 41.5 °F 37.8 °F 37.6 °F 86% 29.45 in 10.0 mi NNE 5.8 mph - N/A   Overcast
10:15 PM 41.2 °F - 37.6 °F 87% 29.44 in 10.0 mi Calm Calm - N/A   Overcast
10:35 PM 41.4 °F 36.8 °F 37.6 °F 86% 29.44 in 10.0 mi NNE 6.9 mph - N/A Rain Light Rain
10:55 PM 41.0 °F 35.8 °F 37.8 °F 88% 29.43 in 10.0 mi NNE 8.1 mph - N/A Rain Light Rain
11:15 PM 40.6 °F 36.0 °F 37.4 °F 88% 29.42 in 10.0 mi NNE 6.9 mph - N/A   Overcast
11:35 PM 40.6 °F 35.4 °F 37.4 °F 88% 29.42 in 10.0 mi NNE 8.1 mph - N/A Rain Light Rain
11:55 PM 40.6 °F - 37.6 °F 89% 29.42 in 7.0 mi Calm Calm - N/A Rain Light Rain